Weather History for KHTS - August, 2014

Change the Weather History Date:

Friday, August 22, 2014

  Actual Average Record
Temperature  
Mean Temperature 77 °F 75 °F  
Max Temperature 84 °F 85 °F 104 °F (1936)
Min Temperature 69 °F 64 °F 49 °F (1982)
Degree Days  
Heating Degree Days 0 0  
Month to date heating degree days 0 0  
Since 1 June heating degree days 3 12  
Since 1 July heating degree days 3 0  
Cooling Degree Days 12 10  
Month to date cooling degree days 152 229  
Year to date cooling degree days 747 899  
Since 1 June cooling degree days 633 786  
Growing Degree Days 26 (Base 50)    
Moisture  
Dew Point 72 °F    
Average Humidity 87    
Maximum Humidity 100    
Minimum Humidity 74    
Precipitation  
Precipitation 2.86 in 0.12 in 2.90 in (1964)
Month to date precipitation 5.91 2.74  
Year to date precipitation 33.97 29.25  
Snow  
Snow 0.00 in - - ()
Month to date snowfall 0.0  
Since 1 September snowfall 36.8  
Snow Depth 0.00 in    
Sea Level Pressure  
Sea Level Pressure 29.99 in    
Wind  
Wind Speed 5 mph (South)    
Max Wind Speed 23 mph    
Max Gust Speed 31 mph    
Visibility 6 miles    
Events Fog , Rain , Thunderstorm    
T = Trace of Precipitation, MM = Missing Value Source: NWS Daily Summary

Daily Weather History Graph

Daily Weather History Graph

Search for Another Location

Airport or City:

Trip Planner

Search our weather history database for the weather conditions in past years. The results will help you decide how hot, cold, wet, or windy it might be!

Date:

Astronomy

Aug. 22, 2014 Rise Set
Actual Time 6:50 AM EDT 8:14 PM EDT
Civil Twilight 6:23 AM EDT 8:42 PM EDT
Nautical Twilight 5:49 AM EDT 9:15 PM EDT
Astronomical Twilight 5:14 AM EDT 9:50 PM EDT
Moon 4:13 AM EDT (8/22) 6:21 PM EDT (8/22)
Length of Visible Light 14h 19m
Length of Day
13h 23m
Waning Crescent, 8% of the Moon is Illuminated
Aug 22
Waning Crescent
Aug 25
New
Sep 2
First Quarter
Sep 8
Full
Sep 15
Last Quarter

Hourly Weather History & Observations

Time (EDT) Temp. Heat Index Dew Point Humidity Pressure Visibility Wind Dir Wind Speed Gust Speed Precip Events Conditions
12:51 AM 69.8 °F - 69.8 °F 100% 30.06 in 10.0 mi South 3.5 mph - N/A   Clear
1:51 AM 69.1 °F - 69.1 °F 100% 30.02 in 10.0 mi SSW 4.6 mph - N/A   Clear
2:51 AM 70.0 °F - 69.1 °F 97% 30.00 in 10.0 mi Calm Calm - N/A   Partly Cloudy
3:47 AM 69.8 °F - 69.8 °F 100% 30.03 in 10.0 mi NNW 10.4 mph 19.6 mph N/A   Mostly Cloudy
3:51 AM 71.1 °F - 70.0 °F 96% 30.01 in 10.0 mi NNW 9.2 mph 19.6 mph N/A   Mostly Cloudy
3:58 AM 71.1 °F - 70.0 °F 96% 30.02 in 10.0 mi WSW 5.8 mph - N/A   Mostly Cloudy
4:13 AM 71.1 °F - 70.0 °F 96% 30.03 in 3.0 mi West 5.8 mph - 0.02 in Rain Rain
4:36 AM 71.1 °F - 70.0 °F 96% 30.02 in 5.0 mi NNE 4.6 mph - 0.05 in Rain Rain
4:51 AM 69.8 °F - 69.8 °F 100% 30.00 in 5.0 mi ESE 4.6 mph - N/A Rain Light Rain
5:40 AM 70.0 °F - 70.0 °F 100% 30.00 in 7.0 mi South 3.5 mph - 0.01 in   Scattered Clouds
5:51 AM 70.0 °F - 70.0 °F 100% 29.99 in 9.0 mi Calm Calm - 0.01 in   Scattered Clouds
6:51 AM 70.0 °F - 70.0 °F 100% 30.01 in 10.0 mi SSW 3.5 mph - N/A   Partly Cloudy
7:51 AM 70.0 °F - 70.0 °F 100% 30.01 in 10.0 mi SSW 5.8 mph - N/A   Scattered Clouds
8:51 AM 72.0 °F - 71.1 °F 97% 30.01 in 10.0 mi SW 5.8 mph - N/A   Clear
9:51 AM 73.9 °F - 72.0 °F 93% 30.01 in 10.0 mi SSW 5.8 mph - N/A   Clear
10:51 AM 78.1 °F - 73.9 °F 87% 30.01 in 10.0 mi WSW 5.8 mph - N/A   Clear
11:51 AM 81.0 °F 86.2 °F 73.9 °F 79% 30.00 in 10.0 mi West 4.6 mph - N/A   Overcast
12:51 PM 82.0 °F 87.4 °F 73.0 °F 74% 29.99 in 10.0 mi Variable 3.5 mph - N/A   Overcast
1:27 PM 79.0 °F - 73.9 °F 84% 30.00 in 1.8 mi West 5.8 mph - 0.00 in Rain Heavy Rain
1:49 PM 80.6 °F 86.2 °F 75.2 °F 84% 30.00 in 2.5 mi NE 5.8 mph - 0.06 in Rain , Thunderstorm Light Thunderstorms and Rain
1:51 PM 80.1 °F 85.8 °F 77.0 °F 90% 29.97 in 2.5 mi NNE 6.9 mph - 0.06 in Rain , Thunderstorm Light Thunderstorms and Rain
2:14 PM 77.0 °F - 75.9 °F 96% 30.00 in 2.5 mi Variable 4.6 mph - N/A Rain Light Rain
2:27 PM 79.0 °F - 77.0 °F 94% 29.99 in 2.5 mi ESE 4.6 mph - 0.03 in Thunderstorm Mostly Cloudy
2:31 PM 78.1 °F - 75.9 °F 93% 29.99 in 3.0 mi East 6.9 mph - 0.03 in Thunderstorm Scattered Clouds
2:51 PM 80.1 °F 85.8 °F 77.0 °F 90% 29.97 in 6.0 mi Variable 5.8 mph - 0.03 in   Partly Cloudy
3:51 PM 80.1 °F 85.4 °F 75.9 °F 87% 29.96 in 10.0 mi North - - N/A   Mostly Cloudy
4:34 PM 82.0 °F 89.4 °F 75.9 °F 82% 29.95 in 7.0 mi ENE 5.8 mph - 0.00 in Thunderstorm Thunderstorm
4:51 PM 82.0 °F 89.4 °F 75.9 °F 82% 29.93 in 6.0 mi ESE 4.6 mph - 0.00 in Thunderstorm Unknown
5:38 PM 78.1 °F - 75.9 °F 93% 29.94 in 1.0 mi East 10.4 mph - 0.01 in Rain , Thunderstorm Light Thunderstorms and Rain
5:42 PM 77.0 °F - 75.9 °F 96% 29.97 in 0.5 mi NW 13.8 mph 25.3 mph 0.01 in Fog , Rain , Thunderstorm Heavy Thunderstorms and Rain
5:49 PM 73.4 °F - 73.4 °F 100% 30.00 in 0.5 mi NNW 13.8 mph 31.1 mph 0.15 in Fog , Rain , Thunderstorm Heavy Thunderstorms and Rain
5:51 PM 73.0 °F - 73.0 °F 100% 29.96 in 0.5 mi North 10.4 mph 31.1 mph 0.38 in Fog , Rain , Thunderstorm Heavy Thunderstorms and Rain
5:58 PM 72.0 °F - 72.0 °F 100% 29.97 in 0.2 mi Calm Calm - 1.00 in Fog , Rain , Thunderstorm Heavy Thunderstorms and Rain
6:02 PM 72.0 °F - 72.0 °F 100% 29.97 in 0.5 mi South 6.9 mph - 1.20 in Fog , Rain , Thunderstorm Heavy Thunderstorms and Rain
6:10 PM 72.0 °F - 72.0 °F 100% 29.96 in 2.0 mi SW 11.5 mph - 1.29 in Rain , Thunderstorm Heavy Thunderstorms and Rain
6:21 PM 73.0 °F - 72.0 °F 96% 29.97 in 6.0 mi Calm Calm - 1.33 in Rain , Thunderstorm Light Thunderstorms and Rain
6:29 PM 72.0 °F - 72.0 °F 100% 30.00 in 2.5 mi ENE 10.4 mph - 1.33 in Rain , Thunderstorm Heavy Thunderstorms and Rain
6:32 PM 71.6 °F - 71.6 °F 100% 29.99 in 0.8 mi East 8.1 mph - N/A Rain , Thunderstorm Heavy Thunderstorms and Rain
6:40 PM 72.0 °F - 72.0 °F 100% 30.01 in 0.5 mi Calm Calm - 1.69 in Fog , Rain , Thunderstorm Heavy Thunderstorms and Rain
6:43 PM 72.0 °F - 72.0 °F 100% 30.01 in 0.2 mi Calm Calm - 1.77 in Fog , Rain , Thunderstorm Heavy Thunderstorms and Rain
6:49 PM 71.6 °F - 71.6 °F 100% 29.99 in 0.2 mi Calm Calm - 1.97 in Fog , Rain , Thunderstorm Heavy Thunderstorms and Rain
6:51 PM 72.0 °F - 72.0 °F 100% 29.97 in 0.2 mi SE 5.8 mph - 2.01 in Fog , Rain , Thunderstorm Heavy Thunderstorms and Rain
6:59 PM 72.0 °F - 72.0 °F 100% 29.97 in 1.0 mi East 9.2 mph - 0.17 in Rain , Thunderstorm Heavy Thunderstorms and Rain
7:18 PM 72.0 °F - 72.0 °F 100% 29.96 in 3.0 mi SSE 6.9 mph - 0.19 in   Mostly Cloudy
7:51 PM 72.0 °F - 72.0 °F 100% 29.96 in 3.0 mi SE 4.6 mph - 0.19 in   Mostly Cloudy
8:13 PM 72.0 °F - 72.0 °F 100% 29.98 in 10.0 mi SSW 5.8 mph - N/A   Mostly Cloudy
8:51 PM 71.1 °F - 71.1 °F 100% 29.96 in 10.0 mi SSW 6.9 mph - 0.04 in   Overcast
9:51 PM 71.6 °F - 71.6 °F 100% 30.00 in 10.0 mi SSW 8.1 mph - N/A   Overcast
10:15 PM 71.1 °F - 71.1 °F 100% 30.01 in 5.0 mi SW 8.1 mph - 0.01 in Rain Light Rain
10:51 PM 71.1 °F - 71.1 °F 100% 29.99 in 10.0 mi SSW 5.8 mph - 0.04 in   Overcast
11:51 PM 71.1 °F - 71.1 °F 100% 29.99 in 9.0 mi SSW 4.6 mph - 0.01 in Rain Light Rain
11:58 PM 71.1 °F - 71.1 °F 100% 30.01 in 10.0 mi SW 6.9 mph - 0.00 in Rain Light Rain